Location: Córrego Montividiu
(13.2496°S, 48.8603°W)
Time: 12:01:57
(UTC+00:00)

Cosmos 1536 - Pass Details

Date: 11 March 2026
Orbit: 482 x 504 km, 82.5° (Epoch: 22 April)

Event Time Altitude Azimuth Distance (km) Brightness Sun altitude
Rises 22:43:41 0° 183° (S) 2,569 6.4 -18.2°
Reaches altitude 10° 22:45:48 10° 182° (S) 1,686 5.4 -18.7°
Maximum altitude 22:49:29 81° 96° (E) 503 2.4 -19.6°
Enters shadow 22:51:08 31° 10° (N) 876 3.6 -20.0°
